This demonstration page uses our WeatherBlox Daily Observations layout. Learn more.

Left ArrowRight Arrow

44.89941, -97.11507

Hourly Observations for October 31, 2021

Temp ( °F °C ) Dew Point ( °F °C ) Humidity (%) Winds ( mph kmh ) Pressure ( in mb ) Visibility ( mi km ) Precip ( " mm )
12:53 am 00:53 Clear 35 1.7 32 0 89 89 NNW 8 13 30.12 1020 10 16 0.00 0.00
1:53 am 01:53 Clear 34 1.1 30 -1.1 85 85 NNW 10 17 30.13 1020 10 16 0.00 0.00
2:53 am 02:53 Clear 33 0.6 29 -1.7 85 85 NNW 8 13 30.15 1021 10 16 0.00 0.00
3:53 am 03:53 Mostly Clear 33 0.6 29 -1.7 85 85 NW 9 15 30.17 1022 10 16 0.00 0.00
4:53 am 04:53 Partly Cloudy 33 0.6 28 -2.2 82 82 NW 13 20 30.19 1022 10 16 0.00 0.00
5:53 am 05:53 Clear 33 0.6 28 -2.2 82 82 NW 8 13 30.20 1023 10 16 0.00 0.00
6:53 am 06:53 Clear 33 0.6 28 -2.2 82 82 NW 13 20 30.22 1023 10 16 0.00 0.00
7:53 am 07:53 Clear 33 0.6 27 -2.8 78 78 WNW 13 20 30.23 1024 10 16 0.00 0.00
8:53 am 08:53 Sunny 32 0 27 -2.8 82 82 W 8 13 30.25 1024 10 16 0.00 0.00
9:53 am 09:53 Sunny 35 1.7 28 -2.2 76 76 WNW 13 20 30.27 1025 10 16 0.00 0.00
10:53 am 10:53 Mostly Sunny 37 2.8 29 -1.7 73 73 WNW 13 20 30.27 1025 10 16 0.00 0.00
11:53 am 11:53 Sunny 39 3.9 30 -1.1 70 70 WNW 15 24 30.29 1026 10 16 0.00 0.00
12:53 pm 12:53 Partly Cloudy 41 5 27 -2.8 57 57 WNW 20 31 30.28 1025 10 16 0.00 0.00
1:53 pm 13:53 Mostly Cloudy 42 5.6 24 -4.4 49 49 NW 22 35 30.27 1025 10 16 0.00 0.00
2:53 pm 14:53 Cloudy 41 5 24 -4.4 51 51 NW 14 22 30.26 1025 10 16 0.00 0.00
3:53 pm 15:53 Cloudy 41 5 25 -3.9 53 53 NW 16 26 30.27 1025 10 16 0.00 0.00
4:53 pm 16:53 Cloudy 41 5 24 -4.4 51 51 WNW 12 19 30.27 1025 10 16 0.00 0.00
5:53 pm 17:53 Mostly Cloudy 41 5 24 -4.4 51 51 WNW 10 17 30.27 1025 10 16 0.00 0.00
6:53 pm 18:53 Mostly Clear 37 2.8 25 -3.9 62 62 WNW 8 13 30.27 1025 10 16 0.00 0.00
7:53 pm 19:53 Mostly Clear 34 1.1 26 -3.3 73 73 W 7 11 30.29 1026 10 16 0.00 0.00
8:53 pm 20:53 Mostly Clear 31 -0.6 25 -3.9 79 79 W 6 9 30.31 1026 10 16 0.00 0.00
9:53 pm 21:53 Partly Cloudy 28 -2.2 24 -4.4 85 85 WSW 6 9 30.31 1027 10 16 0.00 0.00
10:53 pm 22:53 Mostly Cloudy 31 -0.6 26 -3.3 82 82 W 9 15 30.32 1027 10 16 0.00 0.00
11:53 pm 23:53 Clear 34 1.1 25 -3.9 70 70 WNW 13 20 30.31 1026 10 16 0.00 0.00

Powered by AerisWeather